FW2892 Weather Reports


time (UTC)temp
F
wind
direction
speed
knots
gust
knots
rain 1hr
in
rain 24hr
in
rain mn
in
humidity
%
barometer
mb
20210224233239 6 225 3.5 7.8 0.00 0.00 0.00 70 1023.4
20210224230234 6 194 2.6 9.6 0.00 0.00 0.00 70 1023.7
20210224223232 6 217 0.0 7.8 0.00 0.00 0.00 71 1024.1
20210224220233 5 167 4.3 6.1 0.00 0.00 0.00 72 1024.2
20210224213234 5 179 0.0 5.2 0.00 0.00 0.00 71 1024.6
20210224210235 5 217 0.0 1.7 0.00 0.00 0.00 69 1024.8
20210224203235 4 214 0.0 0.9 0.00 0.00 0.00 68 1025.1
20210224200235 4 198 0.0 4.3 0.00 0.00 0.00 71 1025.0
20210224193234 4 202 0.0 7.0 0.00 0.00 0.00 70 1025.2
20210224190230 4 192 0.0 0.9 0.00 0.00 0.00 68 1025.6
20210224183230 4 197 0.0 4.3 0.00 0.00 0.00 68 1026.0
20210224180236 4 215 0.0 4.3 0.00 0.00 0.00 67 1026.2
20210224173234 4 188 1.7 3.5 0.00 0.00 0.00 70 1026.3
20210224170237 3 200 0.0 2.6 0.00 0.00 0.00 68 1026.6
20210224163233 3 204 0.0 2.6 0.00 0.00 0.00 66 1026.8
20210224160229 3 236 0.0 0.0 0.00 0.00 0.00 64 1026.9
20210224153232 3 248 0.0 1.7 0.00 0.00 0.00 62 1027.3
20210224150232 3 260 0.0 0.0 0.00 0.00 0.00 61 1027.4
20210224143234 4 260 0.0 0.0 0.00 0.00 0.00 56 1027.1
20210224140230 4 273 0.0 0.0 0.00 0.00 0.00 55 1027.3
20210224133233 4 273 0.0 0.0 0.00 0.00 0.00 52 1027.5
20210224130233 4 273 0.0 0.0 0.00 0.00 0.00 50 1027.8
20210224123229 4 273 0.0 0.0 0.00 0.00 0.00 51 1028.1
20210224120235 4 275 0.0 0.0 0.00 0.00 0.00 51 1028.2
20210224113228 4 273 0.0 0.0 0.00 0.00 0.00 54 1028.4
20210224110244 3 333 0.0 0.0 0.00 0.00 0.00 53 1029.0
20210224103231 3 275 0.0 0.0 0.00 0.00 0.00 52 1028.9
20210224100238 3 327 0.0 0.0 0.00 0.00 0.00 54 1029.0
20210224093228 2 302 0.0 0.0 0.00 0.00 0.00 58 1029.0
20210224090231 0 312 0.0 7.0 0.00 0.00 0.00 61 1029.3
20210224083228 -2 325 0.0 3.5 0.00 0.00 0.00 62 1029.7
20210224080228 -3 317 0.0 3.5 0.00 0.00 0.00 64 1029.7
20210224073228 -4 276 0.0 7.0 0.00 0.00 0.00 66 1029.9
20210224070231 -4 302 0.0 0.0 0.00 0.00 0.00 66 1030.0
20210224063227 -5 288 0.0 0.0 0.00 0.00 0.00 69 1030.3
20210224060228 -6 294 0.0 3.5 0.00 0.00 0.00 70 1030.6
20210224053227 -7 298 0.0 0.0 0.00 0.00 0.00 73 1030.6
20210224050227 -8 298 0.0 0.0 0.00 0.00 0.00 73 1030.5
20210224043226 -9 300 0.0 0.0 0.00 0.00 0.00 74 1030.3
20210224040227 -9 299 0.0 3.5 0.00 0.00 0.00 74 1030.3
20210224033226 -9 298 0.0 0.0 0.00 0.00 0.00 73 1030.4
20210224030233 -9 298 0.0 2.6 0.00 0.00 0.00 73 1030.3
20210224023230 -9 300 0.0 4.3 0.00 0.00 0.00 73 1030.4
20210224020227 -10 297 0.0 0.9 0.00 0.00 0.00 73 1030.3
20210224013226 -10 299 0.0 0.0 0.00 0.00 0.00 73 1030.2
20210224010233 -10 298 0.0 0.0 0.00 0.00 0.00 73 1030.1
20210224003228 -10 311 0.0 0.0 0.00 0.00 0.00 73 1029.9
20210224000227 -10 313 0.0 0.0 0.00 0.00 0.00 72 1029.7